Tracking 31027 objects as of 19-Jul-2025
HD Live streaming from Space Station
objects crossing your sky now

SL-24 R/B

Track SL-24 R/B now!
10-day predictions


NORAD ID: 33397
Int'l Code: 2008-049B
Perigee: 682.5 km
Apogee: 1,175.4 km
Inclination: 98.7 °
Period: 103.5 minutes
Semi major axis: 7299 km
RCS: 5.3066 m2 (large)
Launch date: October 1, 2008
Source: Commonwealth of Independent States (former USSR) (CIS)
Launch site: Orenburg, Russia (OREN)

Note: This is a ROCKET BODY
Your satellite tracking list
CZ-4C DEB
Track 1 satellite(s)




NASA's NSSDC Master Catalog

Two Line Element Set (TLE):
1 33397U 08049B   25199.40360043  .00000194  00000-0  11711-3 0  9990
2 33397  98.6917 345.6311 0337614 214.0009 160.5407 13.91955768853115
Source of the keplerian elements: AFSPC